Location: Kitchener-Waterloo
(43.4500°N, 80.5000°W)
Time: 15:06:02
(UTC-05:00)

Amateur Radio Satellites - All Passes

Search period start: 10 February 2016 14:36
Search period end: 11 February 2016 14:36
Location: Kitchener-Waterloo, 43.4500°N, 80.5000°W

Satellite Date Start Highest point End Downlink Frequencies (MHz)
Time Altitude Azimuth
YUBILEINY 10 Feb 14:39:47 14:48:41 84° 81° (E) 14:57:31 435.215
DANDE 10 Feb 14:44:40 14:50:00 24° 279° (W) 14:54:24 436.750
Cosmos 2491 10 Feb 14:46:44 14:54:54 47° 88° (E) 15:03:04 435.465 / 435.565
ITUPSAT 1 10 Feb 14:46:46 14:51:37 84° 285° (WNW) 14:56:27 437.325
KKS-1 10 Feb 14:49:03 14:51:39 15° 91° (E) 14:54:14 437.445
BEESAT 10 Feb 14:54:54 14:59:40 69° 287° (WNW) 15:04:25 436.000
AO-7 10 Feb 15:13:00 15:21:24 88° 251° (WSW) 15:29:50 29.400- 29.500
JAS-2 10 Feb 15:13:41 15:17:46 15° 272° (W) 15:21:41 435.910
HORYU 2 10 Feb 15:14:30 15:18:24 32° 68° (ENE) 15:22:20 437.375
M-CUBED/EXP-1 PRIME 10 Feb 15:17:34 15:21:12 71° 69° (ENE) 15:24:36 437.505
AUBIESAT-1 10 Feb 15:26:48 15:30:23 75° 70° (ENE) 15:33:48 437.475
ISS 10 Feb 15:26:53 15:29:41 27° 137° (SE) 15:32:31 145.825
RS-15 10 Feb 15:45:58 15:55:26 27° 349° (N) 16:05:16 29.354- 29.394
SWISSCUBE 10 Feb 15:48:16 15:51:50 21° 297° (WNW) 15:55:24 437.505
Cosmos 2504 10 Feb 15:49:53 15:58:23 55° 75° (ENE) 16:06:17 435.465 / 435.565
STARS 10 Feb 16:05:20 16:09:37 52° 100° (E) 16:13:53 437.465
CUTE-I 10 Feb 16:16:34 16:19:27 15° 58° (ENE) 16:22:21 437.470
MOZHAYETS 4 10 Feb 16:22:21 16:26:57 60° 100° (E) 16:31:33
KKS-1 10 Feb 16:24:13 16:28:33 53° 288° (WNW) 16:32:51 437.445
ITUPSAT 1 10 Feb 16:27:17 16:28:40 11° 303° (WNW) 16:30:03 437.325
BEESAT 3 10 Feb 16:29:06 16:32:04 20° 113° (ESE) 16:35:03 437.485
Cubesat XI-IV 10 Feb 16:29:34 16:33:14 19° 60° (ENE) 16:36:55 437.490
YUBILEINY 10 Feb 16:38:14 16:44:20 21° 282° (WNW) 16:50:25 435.215
Cosmos 2491 10 Feb 16:43:48 16:51:50 40° 289° (WNW) 16:59:56 435.465 / 435.565
BRITE-PL 10 Feb 16:46:46 16:50:00 16° 60° (ENE) 16:53:11 437.365/2234.400
HORYU 2 10 Feb 16:51:19 16:55:00 25° 265° (W) 16:58:41 437.375
BEESAT 2 10 Feb 16:54:15 16:57:31 24° 114° (ESE) 17:00:48 435.950
O/OREOS (USA 219) 10 Feb 16:54:37 16:58:27 25° 56° (NE) 17:02:17 437.305
ISS 10 Feb 17:02:55 17:06:02 43° 335° (NNW) 17:09:10 145.825
CUBESAT XI-V 10 Feb 17:05:54 17:09:11 19° 91° (E) 17:12:27 437.345
AO-7 10 Feb 17:09:46 17:15:14 19° 270° (W) 17:20:45 29.400- 29.500
AO-85 10 Feb 17:34:24 17:38:07 19° 35° (NE) 17:41:40 145.980
STARS 10 Feb 17:42:51 17:45:35 16° 297° (WNW) 17:48:19 437.465
Cosmos 2504 10 Feb 17:43:55 17:51:19 34° 277° (W) 17:58:20 435.465 / 435.565
GOMX 1 10 Feb 17:47:28 17:51:52 27° 67° (ENE) 17:56:07 467.674
CUTE-I 10 Feb 17:53:27 17:58:46 85° 256° (WSW) 18:04:09 437.470
LilacSat-2 10 Feb 17:59:12 18:03:01 81° 258° (WSW) 18:06:50 437.200
MOZHAYETS 4 10 Feb 18:00:48 18:03:39 16° 298° (WNW) 18:06:30
RS-15 10 Feb 18:02:30 18:12:54 32° 24° (NNE) 18:23:34 29.354- 29.394
PCSat 10 Feb 18:04:35 18:07:36 15° 36° (NE) 18:10:38 145.827
BEESAT 3 10 Feb 18:05:49 18:09:34 39° 310° (NW) 18:13:22 437.485
Cubesat XI-IV 10 Feb 18:07:31 18:12:47 64° 258° (WSW) 18:18:07 437.490
GONETS M04 10 Feb 18:10:13 18:15:04 15° 56° (NE) 18:19:53
BRITE-PL 10 Feb 18:22:04 18:27:47 86° 257° (WSW) 18:33:21 437.365/2234.400
BEESAT 2 10 Feb 18:31:35 18:35:16 34° 311° (NW) 18:38:59 435.950
O/OREOS (USA 219) 10 Feb 18:33:44 18:37:56 36° 254° (WSW) 18:42:09 437.305
HO-68 10 Feb 18:35:52 18:42:05 33° 60° (ENE) 18:48:20 435.675
ISS 10 Feb 18:40:37 18:43:04 19° 355° (N) 18:45:32 145.825
CUBESAT XI-V 10 Feb 18:42:18 18:46:50 48° 288° (WNW) 18:51:20 437.345
AIST 2 10 Feb 18:54:44 18:58:44 47° 119° (ESE) 19:02:46 435.215
Cosmos 2499 10 Feb 18:58:22 19:01:35 12° 52° (NE) 19:04:43 435.465 / 435.565
DOVE 4 10 Feb 19:01:43 19:06:45 67° 75° (ENE) 19:11:33 437.250
CANX-2 10 Feb 19:02:11 19:05:49 29° 68° (ENE) 19:09:28 2200.000
AO-85 10 Feb 19:14:14 19:19:28 89° 56° (NE) 19:24:13 145.980
GOMX 1 10 Feb 19:24:36 19:29:44 43° 262° (W) 19:34:40 467.674
CUTE-I 10 Feb 19:38:30 19:39:36 11° 273° (W) 19:40:43 437.470
COMPASS 1 10 Feb 19:41:32 19:45:22 37° 71° (ENE) 19:49:14 437.405
STRAND 1 10 Feb 19:41:55 19:47:06 82° 103° (ESE) 19:52:17 437.568
PCSat 10 Feb 19:46:38 19:52:04 67° 57° (ENE) 19:57:28 145.827
Oscar 11 10 Feb 19:48:41 19:51:32 18° 64° (ENE) 19:54:23 145.826/435.025
CINEMA 3 10 Feb 19:50:26 19:55:02 73° 75° (ENE) 19:59:27 145.822/145.860
CUTE 1.7 + AOD 2 10 Feb 19:51:59 19:56:11 89° 78° (ENE) 20:00:27 437.475
UWE-3 10 Feb 19:52:09 19:55:15 20° 66° (ENE) 19:58:19 435.000/436.395/437.385
CUBEBUG 2 10 Feb 19:52:36 19:56:14 27° 69° (ENE) 19:59:49 437.445
PRISM 10 Feb 19:55:20 19:59:11 35° 98° (E) 20:03:00 437.425
SEEDS 10 Feb 19:56:52 20:01:02 77° 75° (ENE) 20:05:15 437.485
BRITE-PL 10 Feb 20:04:38 20:06:54 12° 273° (W) 20:09:10 437.365/2234.400
GONETS M04 10 Feb 20:04:55 20:13:44 71° 79° (E) 20:22:32
AAUSAT CUBESAT 2 10 Feb 20:09:04 20:13:09 63° 74° (ENE) 20:17:17 437.432
RS-15 10 Feb 20:15:39 20:27:51 75° 52° (NE) 20:40:12 29.354- 29.394
ISS 10 Feb 20:17:33 20:20:17 24° 15° (NNE) 20:23:02 145.825
HO-68 10 Feb 20:22:32 20:29:30 53° 259° (W) 20:36:32 435.675
AIST 1 10 Feb 20:31:46 20:33:16 11° 66° (ENE) 20:34:45
AIST 2 10 Feb 20:34:12 20:37:28 22° 317° (NW) 20:40:46 435.215
CANX-2 10 Feb 20:38:09 20:41:39 25° 265° (W) 20:45:12 2200.000
DOVE 4 10 Feb 20:41:58 20:44:48 15° 269° (W) 20:47:35 437.250
ZACube-1 10 Feb 20:43:06 20:47:09 48° 73° (ENE) 20:51:10 437.345
Cosmos 2499 10 Feb 20:48:34 20:56:55 60° 76° (ENE) 21:04:36 435.465 / 435.565
FUNcube-1 10 Feb 20:51:37 20:55:43 57° 74° (ENE) 20:59:48 145.935
HUMSAT D 10 Feb 20:55:17 20:58:15 20° 66° (ENE) 21:01:14 437.325/437.525
AO-85 10 Feb 20:57:15 20:59:04 12° 256° (WSW) 21:00:50 145.980
DELFI C3 10 Feb 21:15:59 21:19:56 80° 77° (ENE) 21:23:58 145.870
COMPASS 1 10 Feb 21:18:08 21:21:05 19° 268° (W) 21:24:05 437.405
STRAND 1 10 Feb 21:22:50 21:25:36 15° 302° (WNW) 21:28:23 437.568
Oscar 11 10 Feb 21:23:10 21:27:18 47° 261° (W) 21:31:29 145.826/435.025
UWE-3 10 Feb 21:27:33 21:31:30 37° 262° (W) 21:35:25 435.000/436.395/437.385
CUBEBUG 2 10 Feb 21:29:10 21:32:50 27° 264° (W) 21:36:26 437.445
PRISM 10 Feb 21:31:08 21:34:19 21° 295° (WNW) 21:37:29 437.425
CINEMA 3 10 Feb 21:31:11 21:32:37 11° 271° (W) 21:34:02 145.822/145.860
PCSat 10 Feb 21:31:17 21:34:53 18° 255° (WSW) 21:38:29 145.827
CUBEBUG 1 10 Feb 21:35:26 21:36:15 10° 59° (ENE) 21:37:04 437.445
DX 1 10 Feb 21:38:05 21:40:31 15° 61° (ENE) 21:42:57 434.975-435.025
ESTCUBE 1 10 Feb 21:41:44 21:44:37 17° 63° (ENE) 21:47:31 437.505/2401.250
AAUSAT CUBESAT 2 10 Feb 21:47:45 21:49:05 11° 271° (W) 21:50:26 437.432
ANTELSAT 10 Feb 21:48:32 21:51:13 16° 92° (E) 21:53:55 437.575/2403.000
ISS 10 Feb 21:53:47 21:57:03 84° 213° (SSW) 22:00:17 145.825
TIGRISAT 10 Feb 21:54:53 21:57:49 18° 92° (E) 22:00:46 435.000
GONETS M04 10 Feb 22:02:53 22:09:43 26° 279° (W) 22:16:35
AIST 1 10 Feb 22:07:03 22:11:24 69° 264° (W) 22:15:41
ZACube-1 10 Feb 22:21:18 22:23:43 15° 269° (W) 22:26:07 437.345
RS-15 10 Feb 22:28:59 22:39:26 36° 255° (WSW) 22:49:58 29.354- 29.394
HUMSAT D 10 Feb 22:29:55 22:33:41 35° 263° (W) 22:37:28 437.325/437.525
FUNcube-1 10 Feb 22:30:33 22:32:21 12° 270° (W) 22:34:09 145.935
VELOX 1 10 Feb 22:33:55 22:38:13 48° 71° (ENE) 22:42:31 145.980
UNISAT 6 10 Feb 22:38:53 22:43:10 54° 100° (E) 22:47:30 437.425
POLYITAN 1 10 Feb 22:41:41 22:43:52 14° 91° (E) 22:46:03 437.675
QB50P2 10 Feb 22:42:09 22:44:30 14° 91° (E) 22:46:51 145.880/145.840
Cosmos 2499 10 Feb 22:42:33 22:49:25 29° 278° (W) 22:55:53 435.465 / 435.565
AISAT 10 Feb 22:50:35 22:55:03 76° 75° (ENE) 22:59:32 437.250
50 SAT 10 Feb 22:51:44 22:55:25 87° 265° (W) 22:59:10 437.505
UKube-1 10 Feb 22:58:00 23:02:21 81° 73° (ENE) 23:06:42 .
SPROUT 10 Feb 23:06:10 23:09:58 31° 69° (ENE) 23:13:47 437.525
CUBEBUG 1 10 Feb 23:07:23 23:11:50 90° 67° (ENE) 23:16:17 437.445
POPSAT HIP 1 10 Feb 23:10:38 23:14:15 28° 96° (E) 23:17:52 437.405
DX 1 10 Feb 23:11:53 23:16:13 61° 259° (W) 23:20:35 434.975-435.025
TISAT 1 10 Feb 23:12:56 23:15:20 15° 63° (ENE) 23:17:44 437.305
NANOSAT C BR1 10 Feb 23:14:38 23:18:20 30° 96° (E) 23:22:02 145.865
DUCHIFAT 1 10 Feb 23:15:37 23:19:18 29° 96° (E) 23:22:57 145.980
ESTCUBE 1 10 Feb 23:16:34 23:21:00 55° 260° (W) 23:25:29 437.505/2401.250
QB50P1 10 Feb 23:22:57 23:26:54 38° 98° (E) 23:30:49 145.935-145.965
ANTELSAT 10 Feb 23:24:00 23:28:13 50° 288° (WNW) 23:32:29 437.575/2403.000
TIGRISAT 10 Feb 23:30:36 23:34:44 44° 288° (WNW) 23:38:54 435.000
ISS 10 Feb 23:32:10 23:33:00 11° 230° (SW) 23:33:49 145.825
CUSAT 1 10 Feb 23:50:40 23:51:46 10° 75° (ENE) 23:52:52 437.405
VELOX 1 11 Feb 00:12:00 00:14:56 17° 268° (W) 00:17:54 145.980
BUGSAT 1 11 Feb 00:12:35 00:16:38 67° 102° (ESE) 00:20:36 437.445
POLYITAN 1 11 Feb 00:15:55 00:20:01 53° 287° (WNW) 00:24:06 437.675
QB50P2 11 Feb 00:16:32 00:20:37 51° 287° (WNW) 00:24:42 145.880/145.840
UNISAT 6 11 Feb 00:16:52 00:19:29 16° 297° (WNW) 00:22:09 437.425
ITUPSAT 1 11 Feb 00:19:04 00:21:58 16° 61° (ENE) 00:24:54 437.325
PHONESAT 2.4 11 Feb 00:21:43 00:23:45 15° 153° (SSE) 00:25:47 2401.200-2431.200
BEESAT 11 Feb 00:26:19 00:29:38 19° 62° (ENE) 00:32:59 436.000
DANDE 11 Feb 00:29:57 00:33:32 14° 75° (ENE) 00:37:13 436.750
AISAT 11 Feb 00:30:58 00:32:04 11° 271° (W) 00:33:11 437.250
SPROUT 11 Feb 00:42:27 00:45:58 24° 265° (W) 00:49:29 437.525
BEESAT 3 11 Feb 00:45:02 00:48:07 21° 43° (NE) 00:51:10 437.485
TISAT 1 11 Feb 00:46:26 00:50:35 55° 260° (W) 00:54:44 437.305
POPSAT HIP 1 11 Feb 00:46:28 00:49:59 26° 292° (WNW) 00:53:30 437.405
NANOSAT C BR1 11 Feb 00:50:33 00:53:59 25° 293° (WNW) 00:57:22 145.865
DUCHIFAT 1 11 Feb 00:51:28 00:54:54 25° 293° (WNW) 00:58:19 145.980
Cosmos 2491 11 Feb 00:55:40 01:02:35 25° 64° (ENE) 01:09:29 435.465 / 435.565
QB50P1 11 Feb 00:59:22 01:02:26 20° 295° (WNW) 01:05:29 145.935-145.965
BEESAT 2 11 Feb 01:11:06 01:14:25 24° 45° (NE) 01:17:42 435.950
SWISSCUBE 11 Feb 01:17:08 01:21:49 62° 73° (ENE) 01:26:34 437.505
CUSAT 1 11 Feb 01:24:44 01:32:27 54° 93° (E) 01:40:08 437.405
Oscar 19 11 Feb 01:31:40 01:36:38 47° 99° (E) 01:41:33 437.125/150
KKS-1 11 Feb 01:48:21 01:51:18 18° 63° (ENE) 01:54:15 437.445
YUBILEINY 11 Feb 01:48:59 01:54:42 20° 77° (ENE) 02:00:25 435.215
BUGSAT 1 11 Feb 01:50:04 01:51:29 12° 299° (WNW) 01:52:52 437.445
ITUPSAT 1 11 Feb 01:54:34 01:59:18 64° 258° (WSW) 02:04:04 437.325
PHONESAT 2.4 11 Feb 01:57:26 02:00:32 40° 169° (SSE) 02:03:39 2401.200-2431.200
BEESAT 11 Feb 02:02:25 02:07:02 52° 259° (W) 02:11:44 436.000
DANDE 11 Feb 02:07:07 02:14:51 65° 94° (E) 02:23:14 436.750
Gurwin Techsat 1B 11 Feb 02:11:42 02:16:46 43° 98° (E) 02:21:48 435.225
JAS-2 11 Feb 02:18:45 02:24:28 85° 102° (ESE) 02:29:42 435.910
BEESAT 3 11 Feb 02:22:18 02:26:05 44° 242° (WSW) 02:29:50 437.485
ITAMSAT 1 11 Feb 02:42:59 02:47:59 43° 99° (E) 02:52:56 435.822/435.867
BEESAT 2 11 Feb 02:48:43 02:52:25 37° 243° (WSW) 02:56:04 435.950
Cosmos 2491 11 Feb 02:51:38 03:00:22 77° 266° (W) 03:09:07 435.465 / 435.565
SWISSCUBE 11 Feb 02:57:21 03:00:02 15° 269° (W) 03:02:46 437.505
STARS 11 Feb 03:02:53 03:07:11 54° 72° (ENE) 03:11:29 437.465
CUSAT 1 11 Feb 03:07:37 03:14:59 38° 291° (WNW) 03:22:14 437.405
Oscar 19 11 Feb 03:11:39 03:15:39 23° 297° (WNW) 03:19:38 437.125/150
AO-7 11 Feb 03:14:04 03:21:03 29° 95° (E) 03:27:57 29.400- 29.500
AIST 2 11 Feb 03:15:04 03:19:04 45° 51° (NE) 03:23:01 435.215
KKS-1 11 Feb 03:23:08 03:27:29 51° 260° (W) 03:31:51 437.445
MOZHAYETS 4 11 Feb 03:25:08 03:29:38 63° 74° (ENE) 03:34:11
PHONESAT 2.4 11 Feb 03:34:23 03:37:34 47° 186° (S) 03:40:44 2401.200-2431.200
YUBILEINY 11 Feb 03:41:25 03:50:13 89° 275° (W) 03:59:08 435.215
DANDE 11 Feb 03:51:19 03:58:23 33° 294° (WNW) 04:05:50 436.750
Gurwin Techsat 1B 11 Feb 03:52:06 03:56:30 27° 296° (WNW) 04:00:54 435.225
JAS-2 11 Feb 04:05:41 04:08:39 15° 305° (NW) 04:11:30 435.910
CUBESAT XI-V 11 Feb 04:10:20 04:13:53 22° 65° (ENE) 04:17:28 437.345
ITAMSAT 1 11 Feb 04:22:56 04:27:13 26° 296° (WNW) 04:31:31 435.822/435.867
SO-50 11 Feb 04:28:17 04:32:47 37° 116° (ESE) 04:37:20 436.795
Cosmos 2504 11 Feb 04:28:25 04:36:26 45° 87° (E) 04:44:42 435.465 / 435.565
M-CUBED/EXP-1 PRIME 11 Feb 04:30:09 04:33:22 38° 105° (ESE) 04:36:46 437.505
AUBIESAT-1 11 Feb 04:38:46 04:42:04 41° 105° (ESE) 04:45:32 437.475
HORYU 2 11 Feb 04:40:07 04:44:29 53° 101° (E) 04:48:50 437.375
STARS 11 Feb 04:41:21 04:43:52 15° 269° (W) 04:46:24 437.465
Cosmos 2491 11 Feb 04:51:15 04:55:38 15° 286° (WNW) 05:00:03 435.465 / 435.565
AIST 2 11 Feb 04:54:19 04:57:15 19° 248° (WSW) 05:00:09 435.215
MOZHAYETS 4 11 Feb 05:04:59 05:07:15 13° 271° (W) 05:09:31
AO-7 11 Feb 05:06:08 05:14:22 67° 294° (WNW) 05:22:33 29.400- 29.500
PHONESAT 2.4 11 Feb 05:11:50 05:14:28 22° 202° (SSW) 05:17:06 2401.200-2431.200
STRAND 1 11 Feb 05:21:59 05:25:24 18° 61° (ENE) 05:28:49 437.568
YUBILEINY 11 Feb 05:42:11 05:48:23 21° 300° (WNW) 05:54:38 435.215
CUBESAT XI-V 11 Feb 05:46:31 05:50:59 44° 262° (W) 05:55:31 437.345
M-CUBED/EXP-1 PRIME 11 Feb 06:05:55 06:07:48 14° 299° (WNW) 06:09:43 437.505
SO-50 11 Feb 06:08:50 06:13:19 34° 314° (NW) 06:17:50 436.795
CUTE-I 11 Feb 06:09:34 06:14:29 35° 97° (E) 06:19:23 437.470
AUBIESAT-1 11 Feb 06:14:32 06:16:24 14° 300° (WNW) 06:18:20 437.475
HORYU 2 11 Feb 06:17:48 06:20:39 17° 297° (WNW) 06:23:29 437.375
Cosmos 2504 11 Feb 06:21:39 06:29:48 45° 288° (WNW) 06:38:16 435.465 / 435.565
Cubesat XI-IV 11 Feb 06:23:33 06:28:46 47° 100° (E) 06:33:56 437.490
BRITE-PL 11 Feb 06:27:12 06:31:10 26° 93° (E) 06:34:54 437.365/2234.400
PRISM 11 Feb 06:46:00 06:49:40 30° 68° (ENE) 06:53:20 437.425
STRAND 1 11 Feb 06:58:59 07:04:03 64° 258° (WSW) 07:09:11 437.568
AO-7 11 Feb 07:00:46 07:05:37 17° 315° (NW) 07:10:28 29.400- 29.500
DOVE 4 11 Feb 07:01:25 07:03:34 14° 90° (E) 07:05:42 437.250
LilacSat-2 11 Feb 07:05:49 07:09:34 60° 285° (WNW) 07:13:16 437.200
O/OREOS (USA 219) 11 Feb 07:08:43 07:12:06 21° 102° (ESE) 07:15:31 437.305
GONETS M04 11 Feb 07:15:55 07:20:20 15° 74° (ENE) 07:24:44
GOMX 1 11 Feb 07:25:40 07:30:00 52° 99° (E) 07:34:05 467.674
CUTE 1.7 + AOD 2 11 Feb 07:37:12 07:39:34 14° 90° (E) 07:41:57 437.475
SEEDS 11 Feb 07:41:42 07:43:21 12° 89° (E) 07:45:00 437.485
CINEMA 3 11 Feb 07:45:26 07:47:38 14° 91° (E) 07:49:50 145.822/145.860
HO-68 11 Feb 07:49:10 07:55:18 29° 94° (E) 08:01:24 435.675
CUTE-I 11 Feb 07:49:43 07:54:28 33° 294° (WNW) 07:59:12 437.470
Cubesat XI-IV 11 Feb 08:04:12 08:08:32 25° 297° (WNW) 08:12:52 437.490
BRITE-PL 11 Feb 08:05:31 08:09:42 31° 293° (WNW) 08:13:37 437.365/2234.400
CANX-2 11 Feb 08:21:08 08:25:19 48° 99° (E) 08:29:29 2200.000
PRISM 11 Feb 08:21:37 08:25:00 24° 265° (W) 08:28:25 437.425
DOVE 4 11 Feb 08:37:33 08:41:40 50° 288° (WNW) 08:45:41 437.250
O/OREOS (USA 219) 11 Feb 08:47:01 08:51:14 39° 300° (WNW) 08:55:30 437.305
ANTELSAT 11 Feb 08:49:02 08:51:45 17° 64° (ENE) 08:54:28 437.575/2403.000
TIGRISAT 11 Feb 08:55:09 08:58:05 18° 65° (ENE) 09:01:00 435.000
COMPASS 1 11 Feb 08:58:23 09:02:36 62° 100° (E) 09:06:47 437.405
GOMX 1 11 Feb 09:04:59 09:07:38 16° 298° (WNW) 09:10:12 467.674
GONETS M04 11 Feb 09:06:55 09:15:34 77° 95° (E) 09:24:18
Oscar 11 11 Feb 09:09:20 09:13:06 28° 95° (E) 09:16:51 145.826/435.025
CUTE 1.7 + AOD 2 11 Feb 09:11:33 09:15:44 53° 287° (WNW) 09:19:55 437.475
SEEDS 11 Feb 09:15:15 09:19:29 63° 286° (WNW) 09:23:42 437.485
UWE-3 11 Feb 09:15:34 09:19:28 35° 97° (E) 09:23:24 435.000/436.395/437.385
CUBEBUG 2 11 Feb 09:17:49 09:21:55 52° 100° (E) 09:26:06 437.445
CINEMA 3 11 Feb 09:21:05 09:25:06 50° 287° (WNW) 09:29:09 145.822/145.860
Cosmos 2499 11 Feb 09:24:54 09:33:10 49° 88° (E) 09:41:33 435.465 / 435.565
AAUSAT CUBESAT 2 11 Feb 09:25:38 09:29:52 80° 282° (WNW) 09:34:04 437.432
AO-85 11 Feb 09:29:31 09:33:56 27° 111° (ESE) 09:38:29 145.980
POLYITAN 1 11 Feb 09:36:09 09:38:13 13° 62° (ENE) 09:40:17 437.675
HO-68 11 Feb 09:36:20 09:43:22 57° 293° (WNW) 09:50:21 435.675
QB50P2 11 Feb 09:36:33 09:38:46 14° 62° (ENE) 09:40:58 145.880/145.840
UNISAT 6 11 Feb 09:38:51 09:43:03 54° 73° (ENE) 09:47:14 437.425
CANX-2 11 Feb 09:58:02 10:00:49 17° 296° (WNW) 10:03:34 2200.000
POPSAT HIP 1 11 Feb 10:04:26 10:07:54 25° 67° (ENE) 10:11:22 437.405
ZACube-1 11 Feb 10:06:01 10:10:16 89° 263° (W) 10:14:34 437.345
NANOSAT C BR1 11 Feb 10:08:04 10:11:36 27° 68° (ENE) 10:15:09 145.865
DUCHIFAT 1 11 Feb 10:08:50 10:12:21 26° 68° (ENE) 10:15:51 145.980
HUMSAT D 11 Feb 10:12:00 10:15:44 30° 96° (E) 10:19:28 437.325/437.525
FUNcube-1 11 Feb 10:14:18 10:18:31 77° 285° (WNW) 10:22:49 145.935
QB50P1 11 Feb 10:16:31 10:20:20 34° 70° (ENE) 10:24:09 145.935-145.965
ANTELSAT 11 Feb 10:23:57 10:28:08 48° 261° (W) 10:32:16 437.575/2403.000
DELFI C3 11 Feb 10:27:40 10:31:43 71° 284° (WNW) 10:35:43 145.870
PCSat 11 Feb 10:29:20 10:34:31 48° 114° (ESE) 10:39:44 145.827
TIGRISAT 11 Feb 10:30:23 10:34:29 43° 261° (W) 10:38:34 435.000
COMPASS 1 11 Feb 10:35:37 10:37:41 13° 298° (WNW) 10:39:44 437.405
AIST 1 11 Feb 10:37:03 10:41:25 66° 95° (E) 10:45:48
RS-15 11 Feb 10:41:19 10:51:17 40° 107° (ESE) 11:01:41 29.354- 29.394
AISAT 11 Feb 10:41:36 10:43:39 13° 90° (E) 10:45:42 437.250
Oscar 11 11 Feb 10:45:28 10:49:11 28° 292° (WNW) 10:52:53 145.826/435.025
UKube-1 11 Feb 10:46:06 10:47:51 12° 90° (E) 10:49:35 .
UWE-3 11 Feb 10:52:33 10:55:44 21° 293° (WNW) 10:58:58 435.000/436.395/437.385
CUBEBUG 2 11 Feb 10:55:45 10:58:10 15° 296° (WNW) 11:00:38 437.445
CUBEBUG 1 11 Feb 10:56:19 10:58:53 15° 91° (E) 11:01:25 437.445
DX 1 11 Feb 10:59:39 11:02:55 21° 94° (E) 11:06:10 434.975-435.025
BUGSAT 1 11 Feb 11:03:06 11:07:12 53° 73° (ENE) 11:11:15 437.445
GONETS M04 11 Feb 11:06:36 11:13:22 25° 297° (WNW) 11:20:13
ESTCUBE 1 11 Feb 11:08:13 11:12:09 28° 95° (E) 11:16:03 437.505/2401.250
AO-85 11 Feb 11:08:55 11:14:11 52° 309° (NW) 11:19:36 145.980
POLYITAN 1 11 Feb 11:09:21 11:13:33 62° 259° (W) 11:17:44 437.675
QB50P2 11 Feb 11:09:56 11:14:07 59° 259° (W) 11:18:19 145.880/145.840
Oscar 19 11 Feb 11:14:36 11:16:11 11° 56° (NE) 11:17:47 437.125/150
UNISAT 6 11 Feb 11:17:50 11:20:07 14° 269° (W) 11:22:23 437.425
Cosmos 2499 11 Feb 11:18:14 11:26:24 42° 289° (WNW) 11:34:43 435.465 / 435.565
SO-50 11 Feb 11:19:49 11:21:28 11° 27° (NNE) 11:23:05 436.795
HO-68 11 Feb 11:26:50 11:29:35 13° 313° (NW) 11:32:19 435.675
POPSAT HIP 1 11 Feb 11:39:52 11:43:35 30° 263° (W) 11:47:19 437.405
NANOSAT C BR1 11 Feb 11:43:39 11:47:17 28° 264° (W) 11:50:56 145.865
DUCHIFAT 1 11 Feb 11:44:19 11:47:58 28° 264° (W) 11:51:39 145.980
HUMSAT D 11 Feb 11:47:52 11:51:15 24° 293° (WNW) 11:54:38 437.325/437.525
QB50P1 11 Feb 11:52:53 11:56:11 22° 266° (W) 11:59:30 145.935-145.965
50 SAT 11 Feb 11:55:55 11:59:44 75° 283° (WNW) 12:03:32 437.505
Gurwin Techsat 1B 11 Feb 11:58:26 12:00:05 11° 55° (NE) 12:01:45 435.225
VELOX 1 11 Feb 11:59:08 12:03:35 84° 103° (ESE) 12:07:59 145.980
CUSAT 1 11 Feb 12:02:27 12:07:42 32° 67° (ENE) 12:11:46 437.405
PCSat 11 Feb 12:13:26 12:18:08 29° 313° (NW) 12:22:53 145.827
AISAT 11 Feb 12:16:12 12:20:34 62° 287° (WNW) 12:24:53 437.250
AIST 1 11 Feb 12:17:37 12:19:30 12° 293° (WNW) 12:21:24
UKube-1 11 Feb 12:20:02 12:24:20 64° 287° (WNW) 12:28:35 .
SPROUT 11 Feb 12:26:31 12:30:41 51° 100° (E) 12:34:49 437.525
ITAMSAT 1 11 Feb 12:27:17 12:28:37 11° 55° (NE) 12:29:56 435.822/435.867
AO-7 11 Feb 12:28:41 12:31:09 12° 38° (NE) 12:33:37 29.400- 29.500
TISAT 1 11 Feb 12:29:59 12:33:07 20° 94° (E) 12:36:13 437.305
JAS-2 11 Feb 12:30:01 12:37:10 47° 68° (ENE) 12:43:41 435.910
CUBEBUG 1 11 Feb 12:31:14 12:35:29 51° 288° (WNW) 12:39:42 437.445
DX 1 11 Feb 12:35:13 12:39:15 38° 291° (WNW) 12:43:15 434.975-435.025
BUGSAT 1 11 Feb 12:40:44 12:42:54 14° 269° (W) 12:45:03 437.445
ESTCUBE 1 11 Feb 12:44:57 12:48:56 30° 292° (WNW) 12:52:53 437.505/2401.250
DANDE 11 Feb 12:48:39 12:55:32 51° 72° (ENE) 13:00:45 436.750
Oscar 19 11 Feb 12:49:28 12:54:39 77° 74° (ENE) 12:59:50 437.125/150
RS-15 11 Feb 12:51:57 13:03:04 65° 311° (NW) 13:14:53 29.354- 29.394
AO-85 11 Feb 12:53:04 12:56:00 14° 331° (NNW) 12:58:56 145.980
SO-50 11 Feb 12:58:32 13:03:13 46° 49° (NE) 13:07:44 436.795
SWISSCUBE 11 Feb 13:17:39 13:20:18 15° 90° (E) 13:22:57 437.505
Gurwin Techsat 1B 11 Feb 13:33:50 13:39:07 75° 74° (ENE) 13:44:27 435.225
VELOX 1 11 Feb 13:38:04 13:39:23 11° 301° (WNW) 13:40:43 145.980
CUSAT 1 11 Feb 13:45:01 13:49:49 28° 275° (W) 13:53:37 437.405
YUBILEINY 11 Feb 13:50:23 13:58:56 49° 74° (ENE) 14:07:23 435.215
ITUPSAT 1 11 Feb 13:54:10 13:58:24 30° 96° (E) 14:02:37 437.325
Cosmos 2491 11 Feb 13:59:35 14:06:22 26° 81° (E) 14:13:09 435.465 / 435.565
BEESAT 11 Feb 14:01:22 14:05:48 36° 97° (E) 14:10:11 436.000
ITAMSAT 1 11 Feb 14:01:59 14:07:09 74° 74° (ENE) 14:12:22 435.822/435.867
SPROUT 11 Feb 14:03:39 14:06:15 16° 297° (WNW) 14:08:52 437.525
TISAT 1 11 Feb 14:05:05 14:08:54 35° 290° (WNW) 14:12:42 437.305
AO-7 11 Feb 14:14:00 14:21:49 46° 61° (ENE) 14:29:37 29.400- 29.500
JAS-2 11 Feb 14:15:17 14:22:13 37° 264° (W) 14:28:38 435.910
Cosmos 2504 11 Feb 14:20:57 14:26:26 18° 58° (ENE) 14:31:41 435.465 / 435.565
